Ferry Kyoto2 — JI3701 — position and weather

sailwx.info

Track history (hours):
 
Tides and Currents Weather Stations Pressure Air Temp Water Temp Dewpoint Dewpoint Depression Visibility Wind Speed Wind Dir Waves Ship Positions

Ferry Kyoto2

Last reported at 2014-Oct-19 18:23 UTC. Time now 2014-Oct-20 04:30 UTC.
Position N 33°57' E 132°41'.

Length 167 m; draft 6 m.

Type: Passenger vessel. MMSI: 431301641.

Date/timePositionNaut miles runAvg speedWind from/ knotsBaromVisibWave heightAir tempDewpointWater temp
2014-Oct-19 18:23N 33°57' E 132°41'11118.8
2014-Oct-19 12:31N 34°34' E 134°47'2021.0
2014-Oct-19 11:33N 34°36' E 135°11'12 9.9
2014-Oct-19 10:21N 34°37' E 135°26'0 0.0
2014-Oct-19 09:33N 34°37' E 135°26'0 0.0
2014-Oct-19 08:33N 34°37' E 135°26'0 0.0
2014-Oct-19 07:33N 34°37' E 135°26'0 0.0
2014-Oct-19 06:33N 34°37' E 135°26'3 2.9
2014-Oct-19 05:33N 34°38' E 135°22'1616.2
2014-Oct-19 04:33N 34°26' E 135°08'1313.5
2014-Oct-19 03:33N 34°36' E 134°57'1716.7
2014-Oct-19 02:33N 34°37' E 135°17'7 6.7
2014-Oct-19 01:29N 34°37' E 135°26'0 0.0
2014-Oct-19 00:29N 34°37' E 135°26'0 0.0
2014-Oct-18 23:34N 34°37' E 135°26'1110.7
2014-Oct-18 22:33N 34°35' E 135°13'1818.1
2014-Oct-18 21:33N 34°34' E 134°51'11017.7
2014-Oct-18 15:19N 33°59' E 132°44'2321.5
2014-Oct-18 14:16N 33°45' E 132°23'132 5.1
2014-Oct-17 12:30N 34°34' E 134°51'1919.7
2014-Oct-17 11:33N 34°36' E 135°13'1010.2
2014-Oct-17 10:32N 34°37' E 135°26'0 0.0
2014-Oct-17 09:32N 34°37' E 135°26'0 0.0
2014-Oct-17 08:26N 34°37' E 135°26'0 0.0
2014-Oct-17 07:32N 34°37' E 135°26'0 0.0
2014-Oct-17 06:32N 34°37' E 135°26'0 0.0
2014-Oct-17 05:26N 34°37' E 135°26'0 0.0
2014-Oct-17 04:26N 34°37' E 135°26'0 0.0
2014-Oct-17 03:32N 34°37' E 135°26'0 0.0
2014-Oct-17 02:32N 34°37' E 135°26'0 0.0
2014-Oct-17 01:32N 34°37' E 135°26'0 0.0
2014-Oct-17 00:26N 34°37' E 135°26'0 0.0
2014-Oct-16 23:33N 34°37' E 135°26'1010.3
2014-Oct-16 22:33N 34°35' E 135°14'1919.0
2014-Oct-16 21:33N 34°33' E 134°51'10818.0
2014-Oct-16 15:33N 34°01' E 132°46'2421.8
2014-Oct-16 14:28N 33°46' E 132°24'19 1.0
2014-Oct-15 18:32N 33°58' E 132°42'11418.9
2014-Oct-15 12:32N 34°35' E 134°52'2020.5
2014-Oct-15 11:33N 34°37' E 135°16'8 7.8
2014-Oct-15 10:33N 34°37' E 135°26'0 0.0
2014-Oct-15 09:33N 34°37' E 135°26'0 0.0
2014-Oct-15 08:33N 34°37' E 135°26'0 0.0
2014-Oct-15 07:33N 34°37' E 135°26'0 0.0
2014-Oct-15 06:33N 34°37' E 135°26'0 0.0
2014-Oct-15 05:33N 34°37' E 135°26'0 0.0
2014-Oct-15 04:21N 34°37' E 135°26'0 0.0
2014-Oct-15 03:27N 34°37' E 135°26'0 0.0
2014-Oct-15 02:33N 34°37' E 135°26'0 0.0
2014-Oct-15 01:21N 34°37' E 135°26'0 0.0
2014-Oct-15 00:33N 34°37' E 135°26'0 0.0
2014-Oct-14 23:27N 34°37' E 135°26'1011.3
2014-Oct-14 22:33N 34°35' E 135°14'2019.8
2014-Oct-14 21:32N 34°33' E 134°49'10818.0
2014-Oct-14 15:33N 33°60' E 132°45'2322.1
2014-Oct-14 14:29N 33°45' E 132°23'132 2.6
2014-Oct-12 12:33N 34°35' E 134°51'2019.8
2014-Oct-12 11:33N 34°36' E 135°15'9 9.0
2014-Oct-12 10:31N 34°37' E 135°26'0 0.0
2014-Oct-12 09:31N 34°37' E 135°26'0 0.0
2014-Oct-12 08:31N 34°37' E 135°26'0 0.0
2014-Oct-12 07:31N 34°37' E 135°26'0 0.0
2014-Oct-12 06:31N 34°37' E 135°26'0 0.0
2014-Oct-12 05:31N 34°37' E 135°26'0 0.0
2014-Oct-12 04:19N 34°37' E 135°26'0 0.0
2014-Oct-12 03:19N 34°37' E 135°26'0 0.0
2014-Oct-12 02:31N 34°37' E 135°26'0 0.0
2014-Oct-12 01:31N 34°37' E 135°26'0 0.0
2014-Oct-12 00:31N 34°37' E 135°26'0 0.0
2014-Oct-11 23:31N 34°37' E 135°26'9 9.0
2014-Oct-11 22:34N 34°36' E 135°16'1817.6
2014-Oct-11 21:33N 34°35' E 134°54'11118.4
2014-Oct-11 15:33N 34°01' E 132°47'2521.9
2014-Oct-11 14:24N 33°46' E 132°23'21 1.0
2014-Oct-10 18:31N 33°58' E 132°42'11118.6
2014-Oct-10 12:33N 34°34' E 134°50'2222.3
2014-Oct-10 11:33N 34°37' E 135°16'8 7.3
2014-Oct-10 10:30N 34°37' E 135°26'0 0.0
2014-Oct-10 09:30N 34°37' E 135°26'0 0.0
2014-Oct-10 08:30N 34°37' E 135°26'0 0.0
2014-Oct-10 07:24N 34°37' E 135°26'0 0.0
2014-Oct-10 06:30N 34°37' E 135°26'0 0.0
2014-Oct-10 05:30N 34°37' E 135°26'0 0.0
2014-Oct-10 04:30N 34°37' E 135°26'0 0.0
2014-Oct-10 03:30N 34°37' E 135°26'0 0.0
2014-Oct-10 02:24N 34°37' E 135°26'0 0.0
2014-Oct-10 01:30N 34°37' E 135°26'0 0.0
2014-Oct-10 00:30N 34°37' E 135°26'0 0.0
2014-Oct-09 23:33N 34°37' E 135°26'1313.2
2014-Oct-09 22:33N 34°36' E 135°10'1515.4
2014-Oct-09 21:33N 34°34' E 134°51'  
Track history (hours):
 
Tides and Currents Weather Stations Pressure Air Temp Water Temp Dewpoint Dewpoint Depression Visibility Wind Speed Wind Dir Waves Ship Positions

Ferry Kyoto2

Last reported at 2014-Oct-19 18:23 UTC. Time now 2014-Oct-20 04:30 UTC.
Position N 33°57' E 132°41'.

Length 167 m; draft 6 m.

Type: Passenger vessel. MMSI: 431301641.

Date/timePositionNaut miles runAvg speedWind from/ knotsBaromVisibWave heightAir tempDewpointWater temp
2014-Oct-19 18:23N 33°57' E 132°41'11118.8
2014-Oct-19 12:31N 34°34' E 134°47'2021.0
2014-Oct-19 11:33N 34°36' E 135°11'12 9.9
2014-Oct-19 10:21N 34°37' E 135°26'0 0.0
2014-Oct-19 09:33N 34°37' E 135°26'0 0.0
2014-Oct-19 08:33N 34°37' E 135°26'0 0.0
2014-Oct-19 07:33N 34°37' E 135°26'0 0.0
2014-Oct-19 06:33N 34°37' E 135°26'3 2.9
2014-Oct-19 05:33N 34°38' E 135°22'1616.2
2014-Oct-19 04:33N 34°26' E 135°08'1313.5
2014-Oct-19 03:33N 34°36' E 134°57'1716.7
2014-Oct-19 02:33N 34°37' E 135°17'7 6.7
2014-Oct-19 01:29N 34°37' E 135°26'0 0.0
2014-Oct-19 00:29N 34°37' E 135°26'0 0.0
2014-Oct-18 23:34N 34°37' E 135°26'1110.7
2014-Oct-18 22:33N 34°35' E 135°13'1818.1
2014-Oct-18 21:33N 34°34' E 134°51'11017.7
2014-Oct-18 15:19N 33°59' E 132°44'2321.5
2014-Oct-18 14:16N 33°45' E 132°23'132 5.1
2014-Oct-17 12:30N 34°34' E 134°51'1919.7
2014-Oct-17 11:33N 34°36' E 135°13'1010.2
2014-Oct-17 10:32N 34°37' E 135°26'0 0.0
2014-Oct-17 09:32N 34°37' E 135°26'0 0.0
2014-Oct-17 08:26N 34°37' E 135°26'0 0.0
2014-Oct-17 07:32N 34°37' E 135°26'0 0.0
2014-Oct-17 06:32N 34°37' E 135°26'0 0.0
2014-Oct-17 05:26N 34°37' E 135°26'0 0.0
2014-Oct-17 04:26N 34°37' E 135°26'0 0.0
2014-Oct-17 03:32N 34°37' E 135°26'0 0.0
2014-Oct-17 02:32N 34°37' E 135°26'0 0.0
2014-Oct-17 01:32N 34°37' E 135°26'0 0.0
2014-Oct-17 00:26N 34°37' E 135°26'0 0.0
2014-Oct-16 23:33N 34°37' E 135°26'1010.3
2014-Oct-16 22:33N 34°35' E 135°14'1919.0
2014-Oct-16 21:33N 34°33' E 134°51'10818.0
2014-Oct-16 15:33N 34°01' E 132°46'2421.8
2014-Oct-16 14:28N 33°46' E 132°24'19 1.0
2014-Oct-15 18:32N 33°58' E 132°42'11418.9
2014-Oct-15 12:32N 34°35' E 134°52'2020.5
2014-Oct-15 11:33N 34°37' E 135°16'8 7.8
2014-Oct-15 10:33N 34°37' E 135°26'0 0.0
2014-Oct-15 09:33N 34°37' E 135°26'0 0.0
2014-Oct-15 08:33N 34°37' E 135°26'0 0.0
2014-Oct-15 07:33N 34°37' E 135°26'0 0.0
2014-Oct-15 06:33N 34°37' E 135°26'0 0.0
2014-Oct-15 05:33N 34°37' E 135°26'0 0.0
2014-Oct-15 04:21N 34°37' E 135°26'0 0.0
2014-Oct-15 03:27N 34°37' E 135°26'0 0.0
2014-Oct-15 02:33N 34°37' E 135°26'0 0.0
2014-Oct-15 01:21N 34°37' E 135°26'0 0.0
2014-Oct-15 00:33N 34°37' E 135°26'0 0.0
2014-Oct-14 23:27N 34°37' E 135°26'1011.3
2014-Oct-14 22:33N 34°35' E 135°14'2019.8
2014-Oct-14 21:32N 34°33' E 134°49'10818.0
2014-Oct-14 15:33N 33°60' E 132°45'2322.1
2014-Oct-14 14:29N 33°45' E 132°23'132 2.6
2014-Oct-12 12:33N 34°35' E 134°51'2019.8
2014-Oct-12 11:33N 34°36' E 135°15'9 9.0
2014-Oct-12 10:31N 34°37' E 135°26'0 0.0
2014-Oct-12 09:31N 34°37' E 135°26'0 0.0
2014-Oct-12 08:31N 34°37' E 135°26'0 0.0
2014-Oct-12 07:31N 34°37' E 135°26'0 0.0
2014-Oct-12 06:31N 34°37' E 135°26'0 0.0
2014-Oct-12 05:31N 34°37' E 135°26'0 0.0
2014-Oct-12 04:19N 34°37' E 135°26'0 0.0
2014-Oct-12 03:19N 34°37' E 135°26'0 0.0
2014-Oct-12 02:31N 34°37' E 135°26'0 0.0
2014-Oct-12 01:31N 34°37' E 135°26'0 0.0
2014-Oct-12 00:31N 34°37' E 135°26'0 0.0
2014-Oct-11 23:31N 34°37' E 135°26'9 9.0
2014-Oct-11 22:34N 34°36' E 135°16'1817.6
2014-Oct-11 21:33N 34°35' E 134°54'11118.4
2014-Oct-11 15:33N 34°01' E 132°47'2521.9
2014-Oct-11 14:24N 33°46' E 132°23'21 1.0
2014-Oct-10 18:31N 33°58' E 132°42'11118.6
2014-Oct-10 12:33N 34°34' E 134°50'2222.3
2014-Oct-10 11:33N 34°37' E 135°16'8 7.3
2014-Oct-10 10:30N 34°37' E 135°26'0 0.0
2014-Oct-10 09:30N 34°37' E 135°26'0 0.0
2014-Oct-10 08:30N 34°37' E 135°26'0 0.0
2014-Oct-10 07:24N 34°37' E 135°26'0 0.0
2014-Oct-10 06:30N 34°37' E 135°26'0 0.0
2014-Oct-10 05:30N 34°37' E 135°26'0 0.0
2014-Oct-10 04:30N 34°37' E 135°26'0 0.0
2014-Oct-10 03:30N 34°37' E 135°26'0 0.0
2014-Oct-10 02:24N 34°37' E 135°26'0 0.0
2014-Oct-10 01:30N 34°37' E 135°26'0 0.0
2014-Oct-10 00:30N 34°37' E 135°26'0 0.0
2014-Oct-09 23:33N 34°37' E 135°26'1313.2
2014-Oct-09 22:33N 34°36' E 135°10'1515.4
2014-Oct-09 21:33N 34°34' E 134°51'  

Dump ship's entire track history